Waarnemingen

Advertentie
Mijn weer
Kiruna Airport, Zweden (2044): temperatuur & dauwpunt: 17.07.2018 07:00:00 - 23.07.2018 07:00:00 (CEST)Kiruna Airport, Zweden (2044): windsnelheid: 17.07.2018 07:00:00 - 23.07.2018 07:00:00 (CEST)Kiruna Airport, Zweden (2044): windrichting: 17.07.2018 07:00:00 - 23.07.2018 07:00:00 (CEST)Kiruna Airport, Zweden (2044): luchtdruk: 17.07.2018 07:00:00 - 23.07.2018 07:00:00 (CEST)Kiruna Airport, Zweden (2044): zicht: 17.07.2018 07:00:00 - 23.07.2018 07:00:00 (CEST)
Datum & Tijd tt [°C] td [°C] ff [km/u] ff [kn] dd ppp [hPa] vv [km]
23.07.2018 07:00:00 16,0 13,7 5 3 ZW 1004,2 10
23.07.2018 06:00:00 15,1 13,6 0 0 N 1004,1 10
23.07.2018 05:00:00 13,9 12,6 2 1 - 1004,4 10
23.07.2018 04:00:00 13,2 12,1 2 1 Z 1004,6 10
23.07.2018 03:00:00 13,5 12,1 0 0 N 1004,4 10
23.07.2018 02:00:00 13,6 13,1 2 1 - 1004,5 8
23.07.2018 01:00:00 13,9 13,3 0 0 N 1004,4 0,7
23.07.2018 00:00:00 14,9 13,9 0 0 N 1004,0 8
22.07.2018 23:00:00 15,5 14,4 5 3 NO 1003,8 10
22.07.2018 22:00:00 16,6 14,6 5 3 N 1003,3 10
22.07.2018 21:00:00 17,8 15,2 8 4 N 1003,0 10
22.07.2018 20:00:00 19,0 16,2 5 3 NNW 1002,3 10
22.07.2018 19:00:00 19,2 16,4 2 1 - 1002,5 10
22.07.2018 18:00:00 18,3 15,5 9 5 WZW 1002,4 10
22.07.2018 17:00:00 18,5 16,5 9 5 ZZO 1002,6 10
22.07.2018 16:00:00 21,1 15,6 15 8 O 1001,5 10
22.07.2018 15:00:00 23,9 14,3 5 3 - 1000,9 10
22.07.2018 14:00:00 22,7 13,7 8 4 NNW 1001,3 10
22.07.2018 13:00:00 22,8 14,6 4 2 - 1001,8 10
22.07.2018 12:00:00 21,9 15,0 8 4 NO 1002,2 10
22.07.2018 11:00:00 20,6 14,5 8 4 NO 1003,0 10
22.07.2018 10:00:00 19,2 14,2 11 6 N 1003,4 10
22.07.2018 09:00:00 18,0 14,1 13 7 NNW 1004,0 10
22.07.2018 08:00:00 16,8 14,3 13 7 N 1004,4 10
22.07.2018 07:00:00 16,3 14,1 11 6 NNO 1004,7 10
22.07.2018 06:00:00 16,2 14,4 4 2 - 1004,8 10
22.07.2018 05:00:00 13,9 13,3 0 0 N 1005,3 7
22.07.2018 04:00:00 12,7 12,2 4 2 - 1005,4 8
22.07.2018 03:00:00 12,2 11,7 4 2 WZW 1005,7 10
22.07.2018 02:00:00 12,4 11,8 4 2 ZZW 1005,7 7
22.07.2018 01:00:00 13,3 12,4 5 3 Z 1005,7 10
22.07.2018 00:00:00 14,2 13,4 0 0 N 1006,0 7
21.07.2018 23:00:00 14,9 13,9 5 3 ZW 1005,8 10
21.07.2018 22:00:00 15,9 14,8 0 0 N 1005,9 10
21.07.2018 21:00:00 17,0 14,6 5 3 OZO 1006,1 10
21.07.2018 20:00:00 17,1 14,0 8 4 ZW 1005,8 10
21.07.2018 19:00:00 18,1 15,2 11 6 ZW 1005,7 10
21.07.2018 18:00:00 18,4 14,9 11 6 W 1005,7 10
21.07.2018 17:00:00 25,8 11,9 9 5 O 1003,8 10
21.07.2018 16:00:00 25,3 10,7 11 6 Z 1004,5 10
21.07.2018 15:00:00 25,7 9,9 11 6 Z 1004,8 10
21.07.2018 14:00:00 25,5 10,5 13 7 ZZW 1005,2 10
21.07.2018 13:00:00 25,4 10,4 15 8 ZW 1005,8 10
21.07.2018 12:00:00 24,4 10,7 15 8 ZW 1006,7 10
21.07.2018 11:00:00 23,0 13,2 5 3 - 1007,5 10
21.07.2018 10:00:00 22,0 14,4 4 2 NW 1008,0 10
21.07.2018 09:00:00 20,6 14,0 2 1 - 1008,8 10
21.07.2018 08:00:00 17,7 13,4 4 2 - 1009,7 10
21.07.2018 07:00:00 17,7 13,2 5 3 - 1009,9 10
21.07.2018 06:00:00 15,9 12,8 4 2 - 1010,6 10
21.07.2018 05:00:00 14,2 12,4 0 0 N 1011,2 10
21.07.2018 04:00:00 12,7 11,8 0 0 N 1011,5 10
21.07.2018 03:00:00 12,4 11,3 0 0 N 1011,8 10
21.07.2018 02:00:00 13,6 12,0 5 3 WNW 1011,9 10
21.07.2018 01:00:00 15,2 12,5 5 3 N 1011,6 10
21.07.2018 00:00:00 16,3 13,0 4 2 - 1011,9 10
20.07.2018 23:00:00 17,3 13,2 5 3 - 1011,7 10
20.07.2018 22:00:00 18,6 13,0 8 4 N 1011,2 10
20.07.2018 21:00:00 20,7 13,2 11 6 N 1010,7 10
20.07.2018 20:00:00 25,9 8,8 8 4 ZW 1009,4 10
20.07.2018 19:00:00 26,4 7,9 18 10 ZZW 1009,3 10
20.07.2018 18:00:00 27,0 7,9 11 6 ZZW 1009,3 10
20.07.2018 17:00:00 27,4 7,3 15 8 ZW 1009,6 10
20.07.2018 16:00:00 27,1 7,0 18 10 ZZW 1010,0 10
20.07.2018 15:00:00 27,3 8,2 18 10 Z 1010,4 10
20.07.2018 14:00:00 27,0 8,9 18 10 ZZW 1010,8 10
20.07.2018 13:00:00 25,8 9,2 8 4 - 1011,3 10
20.07.2018 12:00:00 24,0 13,5 8 4 NO 1012,4 10
20.07.2018 11:00:00 23,4 13,6 5 3 - 1013,1 10
20.07.2018 10:00:00 20,7 13,4 4 2 - 1014,0 10
20.07.2018 09:00:00 18,5 12,9 4 2 - 1014,8 10
20.07.2018 08:00:00 17,4 12,7 5 3 - 1015,3 10
20.07.2018 07:00:00 15,7 12,1 8 4 N 1015,9 10
20.07.2018 06:00:00 14,8 11,9 5 3 N 1016,2 10
20.07.2018 05:00:00 13,7 11,4 0 0 N 1016,7 10
20.07.2018 04:00:00 13,3 11,2 8 4 N 1016,9 10
20.07.2018 03:00:00 11,9 10,6 0 0 N 1017,3 10
20.07.2018 02:00:00 12,7 10,9 0 0 N 1017,3 10
20.07.2018 01:00:00 13,5 11,4 8 4 N 1017,2 10
20.07.2018 00:00:00 14,2 11,5 9 5 NNW 1017,1 10
19.07.2018 23:00:00 14,8 11,4 9 5 NNO 1017,2 10
19.07.2018 22:00:00 15,6 11,4 13 7 N 1017,0 10
19.07.2018 21:00:00 17,7 12,2 15 8 N 1016,1 10
19.07.2018 20:00:00 18,9 11,9 18 10 N 1015,3 10
19.07.2018 19:00:00 27,1 9,4 16 9 Z 1012,6 10
19.07.2018 18:00:00 27,8 9,1 21 11 Z 1012,3 10
19.07.2018 17:00:00 27,9 8,7 26 14 Z 1012,3 10
19.07.2018 16:00:00 28,1 8,4 24 13 Z 1012,3 10
19.07.2018 15:00:00 27,9 9,2 21 11 ZZO 1012,6 10
19.07.2018 14:00:00 28,0 8,8 22 12 Z 1012,8 10
19.07.2018 13:00:00 27,3 10,1 24 13 Z 1013,2 10
19.07.2018 12:00:00 26,8 9,6 18 10 ZZW 1013,6 10
19.07.2018 11:00:00 27,1 9,4 22 12 ZZW 1013,7 10
19.07.2018 10:00:00 25,7 9,9 13 7 ZZO 1014,0 10
19.07.2018 09:00:00 24,7 10,9 13 7 Z 1014,4 10
19.07.2018 08:00:00 22,8 10,9 9 5 Z 1015,0 10
19.07.2018 07:00:00 21,5 10,3 9 5 Z 1015,4 10
19.07.2018 06:00:00 20,7 10,2 4 2 OZO 1015,7 50
19.07.2018 05:00:00 17,2 10,6 2 1 - 1016,4 10
19.07.2018 04:00:00 16,5 10,1 8 4 ZZW 1016,8 10
19.07.2018 03:00:00 15,9 10,2 11 6 ZW 1017,0 10
19.07.2018 02:00:00 14,3 10,5 8 4 Z 1017,1 10
19.07.2018 01:00:00 14,9 11,7 4 2 - 1017,0 10
19.07.2018 00:00:00 17,4 13,1 8 4 Z 1016,6 10
18.07.2018 23:00:00 22,1 13,7 8 4 Z 1015,6 10
18.07.2018 22:00:00 24,5 14,0 11 6 Z 1014,9 10
18.07.2018 21:00:00 26,2 13,3 13 7 ZZO 1014,3 10
18.07.2018 20:00:00 26,9 12,5 16 9 ZO 1014,2 10
18.07.2018 19:00:00 29,1 8,7 16 9 Z 1013,9 10
18.07.2018 18:00:00 29,0 7,0 21 11 ZZW 1014,2 10
18.07.2018 17:00:00 29,2 6,6 18 10 Z 1014,5 10
18.07.2018 16:00:00 29,4 6,7 21 11 ZZW 1014,8 10
18.07.2018 15:00:00 29,1 8,8 21 11 Z 1015,1 10
18.07.2018 14:00:00 28,5 9,2 21 11 ZZW 1015,8 10
18.07.2018 13:00:00 27,9 10,6 22 12 ZZW 1016,1 10
18.07.2018 12:00:00 27,5 11,5 21 11 ZZW 1016,5 10
18.07.2018 11:00:00 26,4 10,9 18 10 ZZW 1017,0 10
18.07.2018 10:00:00 25,1 9,4 13 7 Z 1017,4 10
18.07.2018 09:00:00 23,5 11,5 13 7 Z 1017,9 10
18.07.2018 08:00:00 22,8 12,1 13 7 Z 1018,1 10
18.07.2018 07:00:00 21,8 13,2 4 2 - 1018,2 10
18.07.2018 06:00:00 20,4 11,9 0 0 N 1018,7 10
18.07.2018 05:00:00 17,5 11,5 4 2 ZW 1019,2 10
18.07.2018 04:00:00 17,5 10,6 5 3 ZW 1019,3 10
18.07.2018 03:00:00 15,8 10,6 0 0 N 1019,7 10
18.07.2018 02:00:00 18,0 11,1 9 5 ZZW 1019,0 10
18.07.2018 01:00:00 20,0 10,7 8 4 Z 1018,4 10
18.07.2018 00:00:00 19,5 12,0 8 4 ZZW 1018,3 10
17.07.2018 23:00:00 22,6 11,9 11 6 Z 1017,4 10
17.07.2018 22:00:00 24,7 12,3 11 6 ZZO 1016,8 10
17.07.2018 21:00:00 26,7 14,1 5 3 OZO 1016,0 10
17.07.2018 20:00:00 28,2 10,8 5 3 - 1015,7 10
17.07.2018 19:00:00 28,2 9,9 5 3 ZZW 1015,8 10
17.07.2018 18:00:00 27,7 13,3 5 3 ZZO 1015,9 10
17.07.2018 17:00:00 27,9 12,3 11 6 ZZO 1015,8 10
17.07.2018 16:00:00 28,7 11,3 13 7 Z 1015,6 10
17.07.2018 15:00:00 28,9 10,5 11 6 Z 1015,8 10
17.07.2018 14:00:00 27,6 11,6 8 4 ZZW 1016,1 10
17.07.2018 13:00:00 28,4 10,6 9 5 Z 1016,0 10
17.07.2018 12:00:00 27,8 9,6 8 4 ZW 1016,1 10
17.07.2018 11:00:00 26,8 12,4 13 7 ZW 1016,3 10
17.07.2018 10:00:00 25,9 12,7 13 7 ZZW 1016,5 10
17.07.2018 09:00:00 24,5 13,1 15 8 Z 1017,0 10
17.07.2018 08:00:00 22,5 12,7 11 6 ZZW 1017,2 10
17.07.2018 07:00:00 20,8 12,2 15 8 ZZW 1017,4 10

tt = temperatuur
td = dauwpunt
ff = windsnelheid
dd = windrichting
ppp = luchtdruk
vv = zicht

Weerstations in de omgeving